Location: Lombard
(41.8800°N, 88.0080°W)
Time: 09:10:48
(UTC-06:00)

deb Explorer IX - Visible Passes

Search period start: 05 March 2024 00:00
Search period end: 15 March 2024 01:00
Orbit: 516 x 915 km, 38.7° (Epoch: 03 March)

Date Brightness Start Highest point End Pass type
(mag) Time Alt. Az. Time Alt. Az. Time Alt. Az.
06 Mar ? 05:00:53 10° SSW 05:04:50 22° SSE 05:09:06 10° E visible
07 Mar ? 04:06:50 12° S 04:08:57 15° SE 04:11:51 10° ESE visible
08 Mar ? 04:52:52 14° SSW 04:56:33 32° SSE 05:01:25 10° E visible
09 Mar ? 03:59:44 22° SSE 04:00:33 23° SSE 04:04:37 10° E visible
09 Mar ? 05:39:35 10° WSW 05:44:29 53° SSE 05:50:00 10° E visible
10 Mar ? 04:06:29 12° ESE 04:06:29 12° ESE 04:07:24 10° ESE visible
10 Mar ? 05:45:33 22° SW 05:48:16 43° SSE 05:53:24 10° E visible
11 Mar ? 04:52:13 33° SSE 04:52:13 33° SSE 04:56:43 10° E visible
11 Mar ? 06:31:27 10° WSW 06:36:17 61° S 06:41:46 10° E visible
12 Mar ? 03:58:50 14° ESE 03:58:50 14° ESE 03:59:54 10° E visible
12 Mar ? 05:37:52 30° SW 05:40:00 54° SSE 05:45:09 10° E visible
13 Mar ? 04:44:26 41° SE 04:44:26 41° SE 04:48:31 10° E visible
13 Mar ? 06:23:28 11° W 06:28:00 62° S 06:33:22 10° ESE visible
14 Mar ? 03:50:56 14° E 03:50:56 14° E 03:51:50 10° E visible
14 Mar ? 05:29:58 37° WSW 05:31:39 60° S 05:36:45 10° E visible
